QPF
0.00 0.02 0.01 0.00 0.01 0.02 0.00 0.02 0.03 0.04 0.08 0.11 0.18 0.16 0.12 0.22 0.26 0.24 0.11 0.08 0.04 0.04 0.03 0.06 0.11 0.01 0.01 0.07 0.03 0.00 0.00 0.00 0.03 0.07 0.10 0.13 0.10 0.12 0.03 0.01 0.01 0.00 0.00
0.00 0.01 0.00 0.00 0.00 0.00 0.00 0.00 0.00 0.00 0.01 0.05 0.10 0.13 0.19 0.10 0.03 0.06 0.08 0.07 0.03 0.01 0.01 0.03 0.03 0.04 0.05 0.03 0.00 0.00 0.00 0.00 0.02 0.11 0.18 0.19 0.08 0.09 0.06 0.01 0.01 0.00 0.00
0.00 0.00 0.00 0.00 0.00 0.00 0.01 0.00 0.00 0.00 0.01 0.00 0.02 0.02 0.03 0.02 0.01 0.01 0.01 0.04 0.03 0.01 0.00 0.00 0.01 0.05 0.13 0.10 0.06 0.01 0.03 0.03 0.03 0.05 0.11 0.07 0.01 0.05 0.02 0.00 0.00 0.00 0.00
0.00 0.00 0.00 0.00 0.00 0.01 0.01 0.03 0.03 0.01 0.01 0.00 0.01 0.00 0.01 0.01 0.00 0.00 0.02 0.08 0.10 0.10 0.07 0.03 0.02 0.03 0.03 0.04 0.03 0.03 0.03 0.03 0.03 0.08 0.11 0.07 0.02 0.00 0.00 0.02 0.01 0.00 0.00
0.00 0.00 0.00 0.00 0.00 0.00 0.01 0.01 0.01 0.02 0.04 0.04 0.02 0.01 0.01 0.01 0.02 0.03 0.05 0.08 0.10 0.15 0.15 0.12 0.11 0.10 0.10 0.07 0.04 0.01 0.01 0.03 0.06 0.10 0.10 0.18 0.12 0.10 0.04 0.03 0.01 0.01 0.01
0.00 0.00 0.00 0.00 0.00 0.00 0.00 0.00 0.00 0.01 0.06 0.08 0.06 0.03 0.03 0.00 0.00 0.01 0.03 0.06 0.10 0.14 0.19 0.15 0.11 0.07 0.05 0.04 0.02 0.00 0.01 0.06 0.09 0.09 0.09 0.16 0.06 0.02 0.02 0.00 0.00 0.00 0.00
0.00 0.00 0.00 0.00 0.00 0.00 0.00 0.01 0.04 0.06 0.08 0.11 0.11 0.07 0.01 0.00 0.00 0.00 0.01 0.02 0.01 0.02 0.03 0.03 0.02 0.01 0.00 0.00 0.00 0.00 0.01 0.02 0.01 0.05 0.05 0.03 0.02 0.00 0.00 0.00 0.00 0.00 0.00
0.01 0.00 0.00 0.00 0.00 0.03 0.10 0.13 0.09 0.05 0.02 0.00 0.00 0.00 0.00 0.00 0.00 0.00 0.01 0.01 0.00 0.00 0.00 0.00 0.00 0.00 0.00 0.00 0.00 0.00 0.00 0.00 0.00 0.00 0.00 0.00 0.00 0.00 0.00 0.00 0.00 0.00 0.00
0.03 0.02 0.02 0.05 0.07 0.12 0.16 0.13 0.03 0.00 0.00 0.00 0.00 0.00 0.00 0.00 0.00 0.00 0.00 0.00 0.00 0.00 0.00 0.00 0.00 0.00 0.00 0.00 0.00 0.00 0.00 0.00 0.00 0.00 0.00 0.00 0.00 0.00 0.00 0.00 0.00 0.00 0.00
0.05 0.03 0.03 0.02 0.06 0.06 0.02 0.00 0.00 0.00 0.00 0.00 0.00 0.00 0.00 0.00 0.00 0.00 0.00 0.00 0.00 0.00 0.00 0.00 0.00 0.00 0.00 0.00 0.00 0.00 0.00 0.00 0.00 0.00 0.00 0.00 0.00 0.00 0.00 0.00 0.00 0.00 0.00
0.02 0.00 0.00 0.01 0.03 0.02 0.04 0.03 0.02 0.01 0.00 0.00 0.00 0.00 0.00 0.00 0.00 0.00 0.00 0.00 0.00 0.00 0.00 0.00 0.00 0.00 0.00 0.00 0.00 0.00 0.00 0.01 0.01 0.00 0.00 0.00 0.00 0.00 0.00 0.00 0.00 0.00 0.00
0.05 0.05 0.03 0.03 0.03 0.02 0.02 0.01 0.01 0.01 0.02 0.07 0.06 0.03 0.01 0.01 0.02 0.02 0.03 0.03 0.03 0.02 0.01 0.02 0.03 0.03 0.02 0.01 0.00 0.00 0.00 0.00 0.00 0.01 0.01 0.00 0.00 0.00 0.00 0.00 0.00 0.00 0.00
0.06 0.05 0.04 0.02 0.01 0.01 0.01 0.02 0.11 0.11 0.04 0.09 0.05 0.03 0.05 0.10 0.10 0.09 0.11 0.16 0.19 0.14 0.14 0.13 0.11 0.10 0.08 0.06 0.04 0.03 0.01 0.01 0.00 0.00 0.00 0.00 0.00 0.00 0.00 0.00 0.00 0.00 0.00
0.05 0.04 0.02 0.00 0.02 0.03 0.01 0.01 0.02 0.01 0.00 0.00 0.01 0.00 0.01 0.04 0.02 0.01 0.04 0.09 0.12 0.09 0.05 0.02 0.01 0.01 0.00 0.00 0.00 0.00 0.00 0.00 0.00 0.00 0.00 0.00 0.00 0.00 0.00 0.00 0.00 0.00 0.00
0.01 0.01 0.00 0.00 0.00 0.00 0.00 0.00 0.00 0.00 0.00 0.00 0.00 0.00 0.00 0.00 0.00 0.00 0.00 0.00 0.00 0.00 0.00 0.00 0.00 0.00 0.00 0.00 0.00 0.00 0.00 0.00 0.00 0.00 0.00 0.00 0.00 0.00 0.00 0.00 0.00 0.00 0.00
0.00 0.00 0.00 0.00 0.00 0.00 0.00 0.00 0.00 0.00 0.00 0.00 0.00 0.00 0.00 0.00 0.00 0.00 0.00 0.00 0.00 0.00 0.00 0.00 0.00 0.00 0.00 0.00 0.00 0.00 0.00 0.00 0.00 0.00 0.00 0.00 0.00 0.00 0.00 0.00 0.00 0.00 0.00
0.00 0.00 0.00 0.00 0.00 0.00 0.00 0.00 0.00 0.00 0.00 0.00 0.00 0.00 0.00 0.00 0.00 0.00 0.00 0.00 0.00 0.00 0.00 0.00 0.00 0.00 0.00 0.00 0.00 0.00 0.00 0.00 0.00 0.00 0.00 0.00 0.00 0.00 0.00 0.00 0.00 0.00 0.00
0.00 0.00 0.00 0.00 0.00 0.00 0.00 0.00 0.00 0.00 0.00 0.00 0.00 0.00 0.00 0.00 0.00 0.00 0.00 0.00 0.00 0.00 0.00 0.00 0.00 0.00 0.00 0.00 0.00 0.00 0.00 0.00 0.00 0.00 0.00 0.00 0.00 0.00 0.00 0.00 0.00 0.00 0.00
0.00 0.00 0.00 0.00 0.00 0.00 0.00 0.00 0.00 0.00 0.00 0.00 0.00 0.00 0.00 0.00 0.00 0.00 0.00 0.00 0.00 0.00 0.00 0.00 0.00 0.00 0.00 0.00 0.00 0.00 0.00 0.00 0.00 0.00 0.00 0.00 0.00 0.00 0.00 0.00 0.00 0.00 0.00
0.00 0.00 0.00 0.00 0.00 0.00 0.00 0.00 0.00 0.00 0.00 0.00 0.00 0.00 0.00 0.00 0.00 0.00 0.00 0.00 0.00 0.00 0.00 0.00 0.00 0.00 0.00 0.00 0.00 0.00 0.00 0.00 0.00 0.00 0.00 0.00 0.00 0.00 0.00 0.00 0.00 0.00 0.00
0.00 0.00 0.00 0.00 0.00 0.00 0.00 0.00 0.00 0.00 0.00 0.00 0.00 0.00 0.00 0.00 0.00 0.00 0.00 0.00 0.00 0.00 0.00 0.00 0.00 0.00 0.00 0.00 0.00 0.00 0.00 0.00 0.00 0.00 0.00 0.00 0.00 0.00 0.00 0.00 0.00 0.00 0.00
0.00 0.00 0.00 0.00 0.00 0.00 0.00 0.00 0.00 0.00 0.00 0.00 0.00 0.00 0.00 0.00 0.00 0.00 0.00 0.00 0.00 0.00 0.00 0.00 0.00 0.00 0.00 0.00 0.00 0.00 0.00 0.00 0.00 0.00 0.00 0.00 0.00 0.00 0.00 0.00 0.00 0.00 0.00
0.00 0.00 0.00 0.00 0.00 0.00 0.00 0.00 0.00 0.00 0.00 0.00 0.00 0.00 0.00 0.00 0.00 0.00 0.00 0.00 0.00 0.00 0.00 0.00 0.00 0.00 0.00 0.00 0.00 0.00 0.00 0.00 0.00 0.00 0.00 0.00 0.00 0.00 0.00 0.00 0.00 0.00 0.00
0.00 0.00 0.00 0.00 0.00 0.00 0.00 0.00 0.00 0.00 0.00 0.00 0.00 0.00 0.00 0.00 0.00 0.00 0.00 0.00 0.00 0.00 0.00 0.00 0.00 0.00 0.00 0.00 0.00 0.00 0.00 0.00 0.00 0.00 0.00 0.00 0.00 0.00 0.00 0.00 0.00 0.00 0.00
0.00 0.00 0.00 0.00 0.00 0.00 0.00 0.00 0.00 0.00 0.00 0.00 0.00 0.00 0.00 0.00 0.00 0.00 0.00 0.00 0.00 0.00 0.00 0.00 0.00 0.00 0.00 0.00 0.00 0.00 0.00 0.00 0.00 0.00 0.00 0.00 0.00 0.00 0.00 0.00 0.00 0.00 0.00
0.00 0.00 0.00 0.00 0.00 0.00 0.00 0.00 0.00 0.00 0.00 0.00 0.00 0.00 0.00 0.00 0.00 0.00 0.00 0.00 0.00 0.00 0.00 0.00 0.00 0.00 0.00 0.00 0.00 0.00 0.00 0.00 0.00 0.00 0.00 0.00 0.00 0.00 0.00 0.00 0.00 0.00 0.00
MSLP
1010.75 1011.09 1011.46 1011.91 1012.00 1011.94 1011.83 1011.65 1011.55 1011.44 1011.34 1011.29 1011.23 1011.41 1011.61 1011.76 1012.11 1012.60 1012.98 1013.70 1014.32 1014.76 1015.09 1015.36 1015.48 1015.26 1015.08 1015.34 1014.50 1014.16 1014.57 1014.79 1015.39 1015.97 1015.96 1015.90 1016.07 1016.45 1016.74 1016.77 1017.27 1017.83 1018.25
1010.48 1010.85 1011.31 1011.68 1011.86 1011.98 1012.08 1011.96 1011.88 1011.89 1011.96 1011.94 1011.89 1012.01 1012.29 1012.69 1012.93 1013.12 1013.60 1014.27 1014.79 1015.28 1015.57 1015.77 1016.16 1016.04 1015.19 1014.93 1014.76 1014.92 1014.96 1014.85 1015.33 1016.10 1016.39 1016.50 1016.66 1016.85 1017.41 1017.25 1017.68 1018.06 1018.53
1010.13 1010.77 1010.90 1011.31 1011.54 1011.71 1012.02 1012.16 1012.19 1012.26 1012.31 1012.34 1012.38 1012.50 1012.96 1013.37 1013.81 1014.26 1014.61 1015.14 1015.52 1015.83 1016.13 1016.37 1016.61 1016.46 1016.49 1016.33 1015.89 1015.74 1015.56 1015.45 1015.63 1016.15 1016.66 1016.55 1016.98 1017.28 1017.30 1017.55 1017.96 1018.39 1018.76
1010.07 1010.66 1010.77 1011.07 1011.28 1011.37 1011.66 1012.06 1012.35 1012.54 1012.75 1013.04 1013.15 1013.28 1013.56 1013.92 1014.46 1014.84 1015.09 1015.43 1015.91 1016.28 1016.61 1016.93 1017.12 1017.23 1017.30 1017.35 1017.09 1016.72 1016.57 1016.40 1016.28 1016.51 1016.66 1017.04 1017.41 1017.44 1017.58 1018.00 1018.52 1018.56 1018.87
1009.99 1010.40 1010.66 1010.93 1010.93 1011.38 1011.70 1012.07 1012.32 1012.69 1013.03 1013.45 1013.77 1014.06 1014.39 1014.72 1015.10 1015.37 1015.72 1016.10 1016.44 1016.90 1017.26 1017.51 1017.67 1017.74 1017.59 1017.69 1017.66 1017.61 1017.25 1016.91 1016.65 1017.28 1017.61 1017.13 1017.81 1017.30 1017.96 1018.20 1018.37 1018.82 1019.06
1009.73 1010.08 1010.41 1010.70 1011.28 1011.57 1011.93 1012.29 1012.52 1012.84 1013.24 1013.70 1014.04 1014.42 1014.78 1015.15 1015.70 1015.86 1016.17 1016.55 1016.90 1017.25 1017.67 1018.07 1018.25 1018.32 1018.31 1018.32 1018.35 1018.36 1018.38 1017.96 1017.41 1017.24 1017.42 1017.96 1018.55 1018.50 1018.63 1018.59 1018.62 1018.85 1019.49
1009.82 1010.04 1010.47 1010.92 1011.45 1011.79 1012.00 1012.32 1012.81 1013.28 1013.79 1014.32 1014.92 1015.25 1015.70 1016.27 1016.38 1016.44 1016.57 1016.82 1017.13 1017.50 1017.89 1018.22 1018.41 1018.67 1018.68 1018.33 1018.49 1018.80 1018.99 1018.79 1018.11 1017.71 1018.56 1019.10 1019.52 1019.55 1019.25 1019.23 1019.37 1019.48 1019.68
1010.06 1010.28 1010.64 1011.10 1011.59 1012.03 1012.55 1013.33 1013.92 1014.31 1014.77 1015.27 1015.84 1016.32 1016.69 1017.18 1016.74 1016.83 1016.91 1017.05 1017.65 1018.23 1018.31 1018.57 1018.86 1019.11 1018.90 1018.59 1019.02 1019.64 1019.91 1019.65 1019.55 1019.66 1020.00 1020.43 1020.59 1020.54 1020.33 1019.93 1019.74 1019.89 1019.78
1010.40 1010.72 1011.11 1011.62 1012.62 1013.30 1013.96 1014.30 1014.79 1015.22 1015.92 1016.39 1016.92 1017.26 1017.58 1018.14 1017.55 1017.17 1017.37 1017.91 1018.60 1019.19 1019.51 1019.62 1019.64 1019.67 1019.29 1019.21 1019.54 1020.15 1020.47 1020.78 1020.82 1020.72 1020.79 1020.97 1021.09 1020.91 1020.82 1020.53 1020.84 1020.27 1020.17
1011.69 1011.92 1012.26 1013.18 1014.16 1014.93 1015.15 1015.50 1015.90 1016.24 1016.89 1017.60 1018.27 1018.68 1018.69 1018.80 1018.66 1017.86 1018.03 1018.70 1019.30 1019.91 1020.38 1020.63 1020.70 1020.49 1020.09 1020.15 1020.20 1020.49 1020.91 1021.25 1021.20 1021.31 1021.26 1021.44 1021.38 1021.39 1021.10 1021.19 1021.69 1021.50 1020.94
1013.17 1013.34 1013.78 1014.72 1015.76 1016.20 1016.39 1016.75 1017.22 1017.78 1018.35 1019.20 1019.64 1020.11 1019.98 1019.96 1019.80 1019.23 1019.13 1019.26 1019.74 1020.43 1021.07 1021.46 1021.82 1021.40 1021.33 1021.24 1021.32 1021.42 1021.70 1021.65 1021.43 1021.65 1021.41 1021.30 1021.15 1021.29 1021.66 1021.86 1022.18 1022.13 1021.67
1014.37 1014.75 1015.37 1015.90 1016.56 1017.04 1017.30 1018.19 1018.83 1019.25 1019.67 1020.51 1020.80 1021.02 1021.25 1021.46 1020.95 1020.70 1020.74 1021.01 1021.38 1021.80 1022.30 1022.48 1022.49 1022.38 1022.49 1022.33 1022.05 1022.32 1022.12 1021.82 1021.92 1021.97 1021.98 1021.58 1021.38 1021.89 1022.09 1021.93 1021.95 1021.98 1021.85
1015.70 1016.05 1016.48 1016.97 1017.57 1018.09 1018.43 1019.08 1019.63 1020.24 1020.63 1021.07 1021.70 1022.03 1022.09 1022.19 1022.40 1022.40 1022.38 1022.36 1022.42 1022.48 1022.90 1022.89 1023.06 1023.09 1022.83 1022.92 1022.86 1022.75 1022.67 1022.50 1022.21 1021.78 1021.79 1021.93 1021.84 1021.81 1021.89 1021.88 1021.83 1021.70 1021.60
1016.78 1017.15 1017.50 1017.90 1018.29 1018.78 1019.18 1019.85 1020.54 1021.19 1021.55 1021.65 1022.04 1022.44 1022.82 1022.94 1022.98 1023.15 1022.91 1023.07 1022.98 1023.13 1022.92 1022.96 1022.86 1022.94 1022.84 1022.60 1022.59 1022.47 1022.50 1022.51 1022.40 1022.49 1022.31 1022.17 1022.13 1022.19 1022.31 1022.23 1021.97 1021.78 1021.82
1017.48 1017.90 1018.20 1018.62 1019.15 1019.74 1020.25 1021.02 1021.76 1022.16 1022.33 1022.35 1022.59 1022.76 1023.09 1023.31 1023.62 1023.59 1023.56 1023.43 1023.28 1023.23 1023.10 1022.81 1022.68 1022.62 1022.47 1022.60 1022.59 1022.58 1022.72 1022.68 1022.82 1022.76 1022.71 1022.70 1022.58 1022.58 1022.52 1022.39 1022.20 1021.95 1022.01
1017.87 1018.38 1018.85 1019.25 1019.78 1020.32 1021.06 1022.00 1022.68 1022.85 1022.97 1023.12 1023.07 1023.01 1023.52 1023.69 1023.70 1023.62 1023.41 1023.17 1022.93 1022.92 1022.82 1022.65 1022.60 1022.66 1022.78 1022.82 1022.85 1022.78 1022.92 1023.19 1023.28 1023.13 1023.00 1023.03 1023.03 1022.94 1022.81 1022.52 1022.34 1022.13 1022.15
1017.87 1018.26 1018.54 1018.84 1019.45 1020.07 1020.77 1021.67 1022.62 1023.71 1023.65 1023.72 1023.71 1023.62 1023.65 1023.89 1023.82 1023.73 1023.58 1023.50 1022.95 1023.17 1022.68 1022.65 1022.75 1022.86 1022.87 1022.86 1022.83 1022.93 1023.07 1023.15 1023.24 1023.24 1023.19 1023.10 1023.03 1022.92 1022.90 1022.75 1022.43 1022.33 1022.32
1018.09 1018.46 1018.46 1018.66 1018.91 1019.00 1019.81 1020.65 1021.41 1022.17 1022.90 1023.62 1023.87 1023.65 1023.96 1023.91 1023.85 1023.79 1023.74 1023.58 1022.81 1022.72 1022.36 1022.56 1022.68 1022.81 1022.75 1022.85 1022.97 1023.17 1023.37 1023.36 1023.43 1023.44 1023.27 1023.12 1023.13 1023.17 1023.06 1022.79 1022.62 1022.55 1022.60
1017.55 1017.45 1017.33 1017.41 1017.56 1017.86 1018.42 1019.08 1019.77 1020.59 1021.43 1022.44 1023.30 1023.85 1023.73 1023.79 1023.91 1023.99 1024.09 1023.52 1022.43 1022.15 1022.16 1022.33 1022.66 1022.91 1023.10 1023.34 1023.51 1023.51 1023.58 1023.59 1023.66 1023.61 1023.35 1023.40 1023.41 1023.30 1023.20 1022.96 1022.84 1022.67 1022.64
1016.92 1017.06 1017.13 1017.56 1017.66 1017.72 1018.01 1018.54 1019.14 1019.69 1020.05 1021.18 1022.17 1022.52 1023.20 1023.56 1023.51 1023.41 1023.13 1022.59 1022.28 1022.23 1022.30 1022.35 1022.48 1022.85 1023.14 1023.46 1023.51 1023.61 1023.35 1023.34 1023.51 1023.51 1023.66 1023.71 1023.59 1023.48 1023.26 1023.12 1022.88 1022.66 1022.41
1016.86 1017.29 1017.59 1017.21 1017.35 1017.90 1018.45 1018.83 1019.32 1019.77 1020.00 1020.65 1021.54 1022.28 1022.62 1022.56 1021.80 1022.07 1022.24 1022.36 1022.44 1022.46 1022.55 1022.79 1022.62 1022.60 1022.71 1023.12 1023.51 1023.61 1023.30 1023.30 1023.49 1023.80 1023.95 1023.91 1023.77 1023.60 1023.36 1023.18 1022.96 1022.61 1022.35
1016.67 1016.72 1017.06 1017.36 1017.90 1018.39 1018.83 1019.38 1019.74 1020.04 1020.26 1020.44 1021.27 1021.87 1022.08 1022.06 1021.57 1021.91 1022.17 1022.33 1022.51 1022.63 1022.78 1023.08 1022.84 1022.67 1022.62 1023.11 1023.46 1023.53 1023.51 1023.30 1023.63 1024.05 1024.30 1024.21 1024.00 1023.69 1023.52 1023.46 1023.06 1022.66 1022.51
1016.93 1016.74 1017.31 1017.68 1018.27 1018.90 1019.03 1019.46 1019.80 1019.99 1019.89 1020.20 1020.40 1021.21 1021.54 1021.47 1021.67 1021.92 1022.20 1022.34 1022.58 1022.74 1022.95 1022.94 1022.88 1022.65 1022.75 1022.97 1023.19 1023.25 1023.36 1023.45 1023.84 1024.23 1024.55 1024.63 1024.31 1023.87 1023.74 1023.41 1023.06 1022.72 1022.68
1017.00 1016.73 1016.97 1017.57 1018.17 1018.48 1018.88 1019.36 1019.53 1019.80 1019.97 1019.75 1020.12 1020.52 1020.95 1021.35 1021.58 1022.18 1022.32 1022.49 1022.67 1022.64 1022.60 1022.69 1022.83 1023.06 1023.31 1023.36 1023.33 1023.24 1023.82 1024.24 1024.23 1024.56 1024.83 1024.68 1024.40 1024.02 1023.90 1023.43 1023.08 1022.88 1022.80
1016.85 1016.62 1016.81 1017.17 1017.64 1018.01 1018.37 1018.68 1018.74 1019.08 1019.44 1019.81 1020.04 1020.40 1020.80 1021.23 1021.60 1021.84 1022.05 1022.31 1022.50 1022.36 1022.51 1022.70 1023.06 1023.41 1023.54 1023.66 1023.91 1024.48 1024.91 1024.95 1025.01 1025.07 1024.89 1024.77 1024.52 1024.08 1023.65 1023.34 1023.31 1023.06 1022.66
1017.02 1016.80 1017.07 1017.05 1017.00 1017.29 1017.59 1017.97 1018.31 1018.78 1019.18 1019.42 1019.80 1020.20 1020.61 1020.90 1021.19 1021.52 1021.89 1022.25 1022.35 1022.17 1022.51 1022.94 1023.07 1023.37 1023.64 1023.95 1024.56 1024.98 1025.17 1025.26 1025.15 1025.22 1025.11 1024.85 1024.40 1023.88 1023.61 1023.53 1023.21 1022.91 1022.44
Thickness
5734 5730 5724 5718 5714 5710 5707 5709 5710 5711 5713 5712 5713 5714 5715 5716 5717 5714 5714 5712 5710 5710 5712 5713 5712 5717 5721 5720 5729 5730 5725 5722 5711 5712 5715 5717 5713 5710 5704 5705 5702 5697 5695
5736 5731 5725 5720 5717 5713 5709 5708 5709 5708 5709 5709 5708 5709 5709 5708 5709 5708 5705 5703 5702 5701 5703 5703 5702 5706 5713 5718 5720 5718 5716 5717 5709 5702 5703 5702 5700 5701 5694 5696 5691 5688 5685
5739 5731 5728 5723 5719 5716 5712 5709 5708 5705 5704 5705 5706 5707 5704 5702 5700 5697 5696 5695 5695 5694 5695 5694 5694 5697 5697 5698 5702 5703 5706 5706 5706 5699 5694 5697 5694 5691 5688 5685 5681 5677 5673
5740 5732 5729 5724 5720 5718 5715 5711 5708 5706 5703 5699 5698 5698 5698 5697 5693 5691 5691 5690 5688 5685 5684 5684 5683 5683 5683 5683 5685 5689 5692 5693 5695 5691 5688 5684 5681 5681 5680 5672 5665 5666 5662
5737 5732 5727 5723 5723 5717 5712 5709 5707 5705 5702 5697 5694 5692 5690 5687 5685 5683 5682 5680 5679 5676 5673 5671 5671 5672 5673 5673 5675 5675 5679 5682 5684 5678 5675 5676 5669 5671 5663 5662 5661 5656 5653
5738 5732 5727 5721 5715 5712 5708 5705 5703 5701 5698 5694 5691 5688 5685 5683 5677 5677 5675 5672 5670 5667 5664 5660 5659 5659 5661 5661 5662 5662 5661 5664 5671 5669 5669 5663 5658 5659 5656 5654 5654 5649 5642
5734 5730 5725 5718 5711 5707 5705 5703 5699 5695 5691 5687 5682 5680 5676 5671 5669 5669 5668 5666 5664 5661 5658 5656 5654 5652 5652 5655 5653 5649 5648 5650 5657 5660 5652 5647 5643 5642 5643 5643 5637 5635 5633
5729 5724 5720 5716 5710 5704 5698 5692 5687 5684 5680 5675 5671 5668 5664 5658 5661 5661 5661 5660 5654 5649 5649 5647 5644 5641 5642 5646 5642 5636 5633 5635 5638 5636 5634 5630 5628 5627 5626 5627 5627 5624 5622
5722 5718 5714 5709 5698 5690 5685 5682 5676 5673 5665 5661 5658 5655 5653 5647 5650 5653 5653 5647 5640 5634 5631 5630 5631 5630 5633 5636 5632 5625 5622 5619 5619 5620 5619 5616 5613 5612 5610 5611 5604 5607 5606
5706 5703 5698 5690 5681 5672 5671 5667 5663 5661 5654 5647 5642 5639 5640 5638 5637 5643 5644 5636 5630 5624 5619 5615 5614 5615 5619 5619 5619 5616 5612 5607 5605 5602 5603 5599 5597 5597 5596 5592 5585 5585 5588
5691 5687 5683 5674 5664 5659 5655 5652 5648 5644 5638 5631 5626 5622 5623 5622 5622 5626 5626 5626 5621 5614 5608 5604 5600 5603 5603 5603 5600 5599 5595 5594 5594 5590 5589 5588 5588 5584 5580 5575 5567 5566 5568
5676 5672 5665 5660 5653 5647 5644 5636 5629 5625 5620 5612 5609 5608 5607 5604 5608 5607 5605 5602 5598 5592 5589 5588 5587 5587 5584 5583 5583 5581 5580 5580 5577 5574 5572 5574 5573 5565 5561 5560 5554 5549 5548
5660 5656 5651 5646 5640 5634 5630 5623 5618 5613 5608 5604 5598 5596 5595 5594 5590 5587 5585 5585 5582 5580 5577 5576 5573 5572 5572 5569 5567 5566 5564 5563 5562 5564 5562 5559 5557 5554 5548 5546 5542 5541 5539
5645 5641 5637 5632 5628 5623 5618 5612 5605 5601 5596 5594 5589 5586 5582 5580 5578 5575 5575 5572 5571 5569 5569 5567 5565 5563 5561 5561 5558 5555 5553 5550 5549 5546 5544 5542 5540 5536 5531 5528 5527 5526 5522
5633 5628 5624 5619 5613 5607 5603 5596 5590 5585 5584 5582 5579 5576 5573 5570 5567 5565 5565 5564 5563 5561 5560 5561 5559 5557 5555 5550 5547 5544 5540 5537 5532 5529 5525 5522 5519 5515 5513 5510 5509 5508 5504
5624 5617 5611 5606 5601 5596 5589 5581 5576 5573 5572 5570 5569 5569 5564 5561 5559 5558 5557 5557 5557 5555 5555 5554 5551 5546 5540 5536 5532 5531 5526 5517 5511 5509 5506 5502 5498 5495 5492 5491 5489 5487 5483
5616 5613 5609 5605 5598 5591 5585 5577 5570 5561 5561 5559 5558 5558 5558 5555 5552 5551 5550 5549 5549 5546 5547 5542 5536 5531 5527 5522 5518 5513 5507 5501 5495 5488 5485 5481 5477 5474 5470 5468 5468 5466 5463
5605 5601 5601 5598 5594 5593 5585 5578 5573 5568 5562 5557 5552 5552 5549 5547 5545 5542 5539 5538 5543 5538 5537 5530 5523 5516 5512 5505 5498 5490 5482 5476 5471 5465 5462 5458 5453 5448 5447 5447 5447 5447 5443
5602 5602 5602 5601 5599 5596 5591 5587 5582 5575 5568 5559 5551 5545 5543 5540 5536 5533 5529 5529 5534 5531 5524 5518 5508 5499 5490 5481 5473 5468 5462 5455 5448 5442 5441 5436 5431 5427 5426 5426 5426 5426 5426
5601 5598 5598 5593 5593 5592 5590 5585 5580 5575 5572 5563 5553 5547 5537 5533 5532 5529 5526 5524 5519 5513 5506 5498 5492 5483 5473 5463 5455 5449 5446 5441 5434 5427 5421 5416 5411 5407 5406 5406 5409 5413 5416
5596 5592 5589 5591 5590 5584 5579 5576 5571 5566 5564 5557 5546 5536 5529 5530 5533 5525 5518 5510 5502 5495 5487 5478 5472 5467 5460 5452 5441 5433 5431 5427 5419 5410 5404 5399 5395 5393 5392 5393 5397 5401 5406
5591 5592 5589 5584 5579 5574 5571 5564 5560 5556 5552 5549 5538 5529 5523 5520 5519 5511 5503 5495 5487 5480 5472 5463 5458 5453 5448 5439 5429 5422 5417 5415 5407 5398 5391 5387 5384 5384 5383 5383 5387 5393 5396
5583 5585 5581 5576 5570 5564 5563 5557 5552 5549 5548 5541 5536 5524 5517 5512 5505 5496 5489 5481 5474 5467 5460 5453 5447 5442 5434 5427 5419 5413 5408 5403 5395 5387 5381 5376 5375 5376 5376 5378 5382 5387 5389
5576 5578 5575 5571 5566 5563 5558 5550 5547 5541 5537 5533 5525 5517 5508 5499 5492 5482 5475 5469 5463 5458 5453 5446 5438 5430 5421 5414 5409 5405 5398 5390 5385 5379 5374 5371 5370 5371 5371 5375 5378 5381 5383
5572 5573 5570 5566 5562 5557 5552 5546 5544 5537 5528 5520 5513 5505 5497 5488 5481 5475 5469 5462 5456 5452 5446 5438 5430 5420 5412 5405 5399 5392 5386 5381 5377 5373 5370 5368 5368 5370 5372 5374 5375 5378 5383
5563 5564 5560 5559 5558 5554 5548 5543 5535 5526 5518 5512 5504 5496 5488 5482 5476 5469 5463 5456 5451 5447 5439 5431 5424 5415 5407 5399 5391 5385 5380 5376 5372 5370 5368 5367 5368 5371 5373 5373 5377 5380 5385